Location: Unspecified
(0.0000°N, 0.0000°E)
Time: 20:01:17
(UTC+00:00)

FENGYUN 1C DEB - Pass Details

Date: 15 February 2026
Orbit: 775 x 802 km, 98.9° (Epoch: 9 April)

Event Time Altitude Azimuth Distance (km) Brightness Sun altitude
Rises 04:12:57 0° 165° (SSE) 3,197 ? -29.5°
Reaches altitude 10° 04:15:14 10° 163° (SSE) 2,274 ? -28.9°
Maximum altitude 04:20:14 78° 77° (ENE) 774 ? -27.7°
Enters shadow 04:20:19 78° 65° (ENE) 775 ? -27.7°
